sat.trackr.live / text

‹ back to catalog

ONEWEB-0638

NORAD 55802 · 2023-029G

PAYLOAD ACTIVE UNKNOWN

§ Identity

Operator
Country
UK
Launch date
2023-03-09
Launch site
AFETR
Launch vehicle
Mass (kg)
RCS (m²)

Purposes: comms

External: N2YO · Heavens-Above · Gunter

§ Orbital elements

Epoch: 2026-05-25T04:15:04.984128Z

Period
109.55 min
Inclination
87.8933°
Eccentricity
0.0002235
Mean motion
13.14501569 rev/d
Perigee alt
1,204.1 km
Apogee alt
1,207.5 km
Semi-major
7,583.9 km
B*
5.9327e-4
RAAN
294.3429°
Arg perigee
86.5589°
Mean anomaly
273.5796°
Rev number
15,637

§ Raw data

ONEWEB-06381 55802U 23029G   26145.17714102  .00000233  00000+0  59327-3 0  99932 55802  87.8933 294.3429 0002235  86.5589 273.5796 13.14501569156372

JSON: /api/v1/satellites/55802 · /tle

For live sub-satellite position, see the globe view (requires WebGL).

§ Visibility from observer

Set your observer location to see the next 7 days of passes ≥ 10°. The values pass through the URL so the page stays shareable.

No JS? Fill the form by hand. The geolocation button needs JavaScript.